Temperature
30 31 32 32 32 32 32 32 31 31 31 31 30 30 30 30 29 29 28 27 27 26 25 25 24 24 23 22 22 22 21 21 21 20 20 19 19 19 19 18 18 18 17 17
29 31 31 31 32 32 32 32 32 32 31 32 30 29 29 29 29 28 28 27 26 25 25 24 24 23 23 22 22 22 21 21 20 20 20 19 19 19 18 18 18 18 17 17
28 30 30 30 31 32 32 32 32 31 31 31 30 29 28 28 28 27 27 26 26 25 24 24 23 23 22 22 22 21 21 20 20 20 19 19 19 19 18 18 18 17 17 17
27 28 27 30 32 32 32 32 32 32 31 31 29 28 27 27 26 27 26 25 25 24 24 23 23 22 22 22 21 21 20 20 20 19 19 19 19 18 18 18 18 17 17 17
27 27 28 29 31 31 31 30 31 31 31 31 30 29 27 26 26 26 25 25 24 24 23 23 22 22 21 21 20 20 20 20 19 19 19 19 18 18 18 18 18 17 17 17
26 26 26 28 30 31 31 29 30 30 30 29 29 28 27 26 25 25 24 24 23 23 23 22 22 21 21 21 20 20 20 19 19 19 19 19 18 18 18 18 17 17 16 16
25 25 26 28 29 30 28 27 28 28 28 28 27 27 25 25 24 24 23 23 23 22 22 22 21 21 21 20 20 20 19 19 19 19 19 18 18 18 17 17 16 16 16 16
25 25 25 27 28 27 26 26 27 27 27 26 25 25 24 24 23 22 22 22 22 21 21 21 21 21 20 20 20 19 19 19 18 18 18 18 17 17 17 16 16 16 16 16
24 24 24 25 25 25 25 25 25 25 25 25 24 24 23 23 22 22 21 21 21 21 20 20 20 20 19 19 19 19 18 18 18 18 18 17 17 17 16 16 16 16 15 15
23 24 24 24 24 24 24 24 24 24 24 24 24 23 22 22 21 21 21 20 20 20 19 19 19 19 19 19 18 18 18 17 17 17 17 17 17 16 16 16 16 15 15 15
23 23 23 23 23 23 23 23 23 23 23 23 22 22 21 21 20 20 20 20 19 19 18 18 18 18 18 18 17 17 17 17 17 16 16 16 16 16 16 16 16 16 16 15
22 23 23 21 22 22 22 22 22 22 22 22 22 21 20 20 19 19 19 19 18 18 18 18 17 17 17 17 17 17 16 16 16 16 16 16 16 16 16 16 16 15 15 15
21 21 21 21 21 21 21 21 21 21 21 21 20 20 20 19 19 18 18 18 18 17 17 17 17 17 17 17 17 16 16 16 16 16 16 16 16 16 16 15 15 15 15 15
20 20 20 20 20 20 20 20 20 20 20 20 19 19 19 18 18 18 17 17 17 17 17 17 16 16 16 16 16 16 16 16 16 16 16 16 15 15 15 15 15 15 15 15
19 19 19 20 20 20 20 20 19 19 19 19 18 18 18 17 17 17 17 17 16 16 16 16 16 16 16 16 16 16 15 15 15 15 15 15 15 15 15 15 15 15 15 14
19 19 19 19 19 19 19 19 19 18 18 18 17 17 17 16 16 16 16 16 16 16 16 16 15 15 15 15 15 15 15 15 15 15 15 15 15 15 15 14 14 14 14 14
18 18 18 18 18 18 18 18 18 17 17 17 17 16 16 16 16 15 15 15 15 15 15 15 15 15 15 15 15 15 15 15 14 14 15 15 15 14 15 14 14 14 14 14
18 18 18 18 18 18 18 17 17 17 17 16 16 16 15 15 15 15 15 15 15 15 15 15 15 15 15 15 14 14 14 14 14 14 14 14 14 14 14 14 14 14 14 13
17 17 17 17 17 17 17 17 16 16 16 16 16 15 15 15 15 14 15 15 14 14 14 14 14 14 14 14 14 14 14 15 14 14 14 14 14 14 14 14 14 14 14 13
16 16 17 16 16 16 16 16 16 15 15 15 15 15 15 14 14 14 14 14 14 14 14 14 14 14 14 14 14 14 14 14 14 14 14 14 14 14 14 14 14 14 13 13
15 16 16 15 15 15 15 15 15 15 15 14 14 14 14 14 14 14 14 14 14 14 14 14 14 14 14 14 14 14 14 14 14 14 14 14 13 13 13 13 13 13 13 13
15 15 15 15 15 15 15 14 14 14 14 14 14 14 14 14 14 14 14 14 14 14 14 14 14 14 14 14 14 14 14 14 14 13 13 13 13 13 13 13 13 13 13 12
14 14 14 14 14 14 14 14 14 14 14 14 14 14 14 14 14 14 14 14 14 14 14 14 14 14 14 13 13 13 13 13 13 13 13 13 13 13 13 13 13 13 13 12
13 13 13 14 14 14 13 14 13 13 13 13 14 14 14 14 14 14 14 14 14 14 13 13 13 13 13 13 13 13 13 13 13 13 13 13 13 13 13 13 13 12 12 12
13 13 13 13 13 13 13 13 13 13 13 13 13 14 14 13 13 13 13 13 13 13 13 13 13 13 13 13 13 13 13 13 12 13 13 13 13 13 13 13 12 12 12 12
13 13 13 13 13 13 13 13 13 14 14 13 13 13 13 13 13 13 13 13 13 13 13 13 13 13 13 13 12 12 12 12 12 12 12 12 12 12 12 12 12 12 12 11
13 13 13 13 13 13 13 13 13 13 13 13 13 13 13 13 13 13 13 13 13 13 13 13 13 13 13 12 12 12 12 12 12 12 12 12 12 12 12 12 12 11 11 11
Wind_Speed
18 15 13 15 17 18 18 16 12 8 8 7 6 4 4 5 7 7 8 8 7 8 9 10 10 11 10 10 9 9 9 9 8 7 7 6 5 5 4 4 4 3 3 2
17 17 17 17 16 17 18 16 15 11 8 3 7 5 4 4 6 7 7 7 7 7 9 9 10 10 10 9 9 9 9 9 9 8 8 7 6 5 5 4 4 4 3 3
15 17 16 18 16 16 14 14 12 11 7 3 6 6 5 4 4 6 6 6 6 6 8 8 9 9 10 9 9 9 9 8 9 9 8 7 7 6 5 5 4 4 4 4
14 14 17 13 13 13 13 11 10 8 6 6 7 8 7 5 4 5 5 5 5 6 7 8 8 9 9 9 9 9 9 8 8 9 8 7 7 6 5 4 4 3 4 5
12 15 15 12 12 12 11 9 7 5 3 4 5 7 6 5 5 5 4 4 4 4 6 7 9 9 8 9 9 8 8 8 8 8 8 8 7 6 6 5 5 4 4 4
12 14 13 10 9 8 8 8 5 3 2 3 3 3 3 5 6 6 5 5 5 5 6 7 8 8 9 8 8 8 8 8 8 7 7 7 7 6 6 5 5 4 4 4
15 14 10 8 7 8 10 4 2 2 2 3 3 3 4 5 6 6 6 5 6 5 5 5 7 8 8 7 7 6 7 7 7 7 7 8 7 6 6 5 5 4 4 4
14 14 9 3 5 4 1 4 3 3 4 5 6 6 6 6 6 6 5 5 5 5 5 5 6 7 7 6 5 5 6 6 7 7 7 8 7 6 6 6 5 5 4 4
6 5 1 3 4 3 4 4 3 3 3 5 4 5 5 5 6 5 5 4 4 5 5 5 5 5 5 5 5 5 5 6 6 6 6 7 8 7 6 5 5 5 5 5
4 3 3 2 3 2 2 3 2 1 2 3 4 5 5 5 4 4 3 3 4 5 4 4 4 4 4 4 5 5 5 5 6 6 6 6 6 6 6 6 6 5 5 5
5 5 2 2 2 1 1 2 2 2 2 2 3 4 5 4 4 3 3 3 3 3 3 3 4 4 4 4 4 5 5 5 5 6 5 5 5 3 4 3 4 4 4 4
4 3 2 2 0 1 1 2 2 2 2 2 3 4 4 4 4 3 3 3 3 3 3 3 4 4 3 4 4 4 4 4 5 5 5 5 5 2 3 2 4 5 4 3
2 1 1 2 2 1 2 2 2 2 2 2 2 4 5 5 4 4 3 3 3 3 3 3 3 3 3 4 4 4 4 4 4 5 5 5 5 5 4 2 4 4 3 4
3 1 3 3 2 2 2 2 2 3 3 3 2 3 4 4 4 4 3 3 3 3 3 3 3 3 3 3 3 4 5 5 5 5 5 6 5 5 5 5 4 2 2 5
3 1 2 2 1 2 2 2 3 3 3 3 3 3 2 3 3 2 2 2 2 2 2 2 3 3 3 3 3 4 4 4 4 4 4 5 5 5 5 5 5 4 3 3
2 1 2 1 1 2 2 3 2 2 3 3 2 2 2 3 3 2 1 1 2 1 1 2 2 3 4 4 4 4 4 5 5 4 4 4 5 5 5 5 6 5 6 5
3 3 3 3 2 2 1 2 2 2 2 3 3 3 2 2 2 2 1 1 1 1 2 2 2 2 3 3 4 4 4 4 5 5 4 4 4 5 5 5 5 5 5 6
3 3 3 2 1 1 2 1 2 2 2 3 3 3 2 2 1 1 0 1 1 2 2 2 2 3 4 3 3 4 3 4 4 4 4 4 4 4 4 4 5 5 4 5
1 2 2 1 1 1 1 1 2 2 2 2 2 2 1 1 1 0 0 1 1 2 2 2 3 4 4 4 4 4 4 4 4 4 4 4 4 4 4 5 5 4 4 5
2 2 2 2 1 1 1 2 2 2 1 1 1 1 1 1 1 1 0 0 1 1 1 2 3 3 4 4 5 4 4 4 4 4 4 4 4 3 3 3 4 4 4 4
2 2 3 3 2 1 1 1 1 1 1 1 0 0 0 0 0 0 1 1 0 1 1 2 2 2 3 2 4 4 4 4 4 4 4 4 3 3 3 3 4 3 3 3
1 1 2 2 2 1 1 1 1 1 1 2 2 1 1 1 1 1 2 1 1 1 1 2 3 1 1 2 3 3 3 3 3 3 3 4 3 3 4 4 4 3 3 3
1 1 1 1 1 0 1 1 2 2 3 3 2 2 2 1 2 2 2 1 1 2 2 2 1 4 3 2 2 2 3 3 3 3 3 3 3 3 4 4 3 3 3 3
1 1 1 1 1 1 2 2 2 2 2 2 3 3 3 2 2 2 2 2 2 3 1 1 4 4 4 3 3 2 2 2 3 3 3 3 3 3 3 3 2 3 2 3
0 1 2 1 1 2 2 3 3 3 3 3 3 3 3 2 2 2 2 2 3 3 2 3 4 4 4 3 3 2 1 1 1 2 2 2 3 3 3 3 2 2 2 2
1 1 0 0 1 2 3 3 3 3 3 2 2 2 2 2 2 2 1 1 2 2 2 2 3 4 4 3 2 2 1 1 1 2 2 2 2 2 2 2 3 2 2 2
1 1 1 1 2 2 2 2 2 2 2 1 2 2 1 1 0 0 1 1 1 1 2 2 2 3 3 2 2 2 1 1 1 1 1 1 1 0 1 1 1 2 1 2
Wind_Direction
257 257 249 234 231 233 236 246 251 236 224 186 156 158 148 138 137 144 144 144 142 147 150 153 151 153 160 161 158 161 159 163 162 157 154 152 154 152 148 152 145 136 124 115
252 254 255 246 239 234 234 238 245 241 240 175 128 133 136 124 140 145 138 143 147 151 149 152 154 158 156 156 155 154 158 161 157 157 156 156 154 151 149 148 140 140 131 114
247 248 249 243 236 233 235 235 237 240 233 196 143 139 142 141 155 146 147 145 152 151 148 150 154 154 156 154 154 157 160 160 158 158 157 161 163 155 156 154 141 133 122 107
248 249 243 243 246 239 238 244 244 230 203 164 158 145 138 145 164 142 142 142 144 151 150 152 153 153 153 156 157 160 160 161 161 161 163 163 159 156 154 146 142 141 132 128
242 242 240 241 242 245 238 237 246 240 205 177 151 150 132 131 138 127 129 128 134 148 157 151 153 155 153 158 159 161 163 165 165 164 164 165 164 160 154 151 152 155 149 145
242 245 242 244 248 258 252 231 234 215 181 150 153 197 132 100 101 107 115 118 122 119 125 135 146 150 155 159 163 169 169 169 165 163 166 167 164 160 156 156 161 164 154 153
241 245 245 262 270 252 235 218 68 69 80 99 110 85 108 98 95 102 104 117 118 117 124 132 138 145 153 157 164 166 158 155 161 163 165 163 160 160 159 166 172 169 158 159
236 242 240 264 235 247 84 72 75 62 76 82 79 91 104 106 103 107 107 109 116 116 119 129 137 147 154 155 153 152 151 155 159 161 166 160 155 162 165 171 173 172 167 171
237 237 62 27 64 76 77 73 69 73 74 93 103 111 111 109 110 112 115 119 121 120 123 129 138 144 152 151 148 151 155 155 154 156 153 154 163 168 171 180 188 185 186 191
237 207 204 166 105 83 90 81 84 92 95 108 121 123 121 117 113 116 114 114 113 123 130 135 140 135 138 145 151 155 157 160 158 159 162 160 169 176 183 189 197 196 195 193
214 207 186 135 123 102 90 88 74 82 107 126 130 125 123 121 117 114 111 109 116 127 134 136 127 129 139 147 153 157 161 164 166 170 171 165 168 177 181 178 184 195 202 194
234 224 197 138 69 175 136 98 76 82 98 119 132 139 136 128 122 117 115 108 112 120 124 131 136 132 130 141 152 163 170 175 181 181 176 182 175 157 52 122 128 127 129 145
315 300 210 167 208 178 128 117 110 112 113 116 126 135 138 134 130 125 124 124 130 136 137 139 143 145 144 150 165 178 188 192 197 192 182 193 189 181 172 100 74 86 114 135
286 242 202 210 204 148 151 148 125 117 114 123 128 131 136 137 135 137 136 138 142 146 147 152 156 159 161 166 176 192 198 195 206 205 193 195 194 192 187 181 181 176 150 163
286 263 232 212 172 149 156 160 146 128 114 106 109 114 119 126 128 129 128 145 147 160 161 164 164 164 169 184 192 201 204 199 205 210 204 199 191 192 192 192 195 184 168 159
261 228 219 198 182 162 175 173 135 113 108 105 99 90 95 100 100 101 120 156 165 180 167 173 184 179 178 188 205 215 210 200 208 218 210 205 201 204 200 198 199 192 191 178
216 215 210 209 205 168 138 121 123 111 104 106 106 104 105 101 99 115 123 122 148 154 172 194 203 197 196 194 212 223 216 195 203 219 217 213 211 213 212 207 205 203 201 183
203 225 217 214 207 137 98 96 108 94 87 105 113 114 116 113 109 112 152 179 165 166 183 202 204 201 199 203 215 220 209 198 209 217 216 217 220 221 220 216 210 207 196 179
215 197 179 153 117 114 114 104 83 80 86 107 117 122 123 116 105 134 248 191 183 196 201 184 199 217 210 201 212 219 217 208 202 211 220 214 221 221 223 227 222 210 196 177
233 221 160 134 142 117 88 79 66 52 45 46 89 102 97 85 71 73 27 264 233 232 181 165 206 224 220 205 220 221 214 212 211 209 207 214 223 225 229 235 233 216 202 190
213 186 149 140 131 113 92 72 54 25 16 344 308 201 224 254 275 251 250 258 214 170 187 179 201 221 222 217 217 222 216 215 215 215 209 208 208 210 222 232 233 226 210 202
149 155 146 144 144 151 143 151 194 251 271 269 257 228 216 235 239 235 232 235 209 138 199 235 222 197 180 202 214 221 225 227 225 216 211 208 210 212 215 220 221 215 207 204
137 146 135 147 171 213 217 229 227 238 246 252 259 256 245 248 248 247 247 221 212 178 220 251 154 128 138 220 235 232 241 247 246 230 212 207 213 215 215 217 211 200 196 192
126 152 169 169 180 219 238 238 246 247 248 256 247 239 238 241 249 245 242 209 196 178 229 152 151 162 186 229 238 228 238 248 255 249 224 209 205 210 205 202 202 199 189 189
165 185 181 184 215 233 244 250 246 238 235 239 240 235 237 234 240 237 226 218 187 186 200 168 182 195 218 239 232 230 220 241 303 299 260 229 215 207 189 181 186 203 208 201
263 244 200 221 234 242 244 244 245 233 226 236 254 251 249 240 222 214 216 212 211 196 205 187 178 198 223 227 217 226 214 188 216 261 281 273 240 211 183 173 175 191 201 181
224 232 235 248 258 254 255 253 256 258 250 236 256 259 264 284 277 213 194 203 233 223 211 208 199 195 213 218 205 194 198 186 195 241 270 294 294 244 167 156 160 157 179 179
Height
1455 1449 1448 1452 1453 1453 1457 1459 1467 1467 1466 1465 1467 1470 1473 1474 1476 1481 1485 1489 1492 1496 1500 1504 1507 1511 1515 1518 1520 1523 1525 1527 1529 1531 1533 1535 1536 1537 1538 1539 1539 1539 1539 1539
1460 1451 1450 1451 1449 1449 1452 1453 1457 1459 1463 1459 1464 1470 1472 1475 1478 1480 1484 1488 1492 1495 1498 1502 1505 1509 1512 1515 1518 1521 1523 1525 1527 1529 1531 1533 1534 1535 1536 1537 1538 1538 1539 1539
1466 1455 1454 1459 1449 1449 1450 1448 1453 1462 1460 1458 1464 1469 1474 1476 1478 1481 1485 1488 1491 1494 1497 1500 1503 1506 1509 1512 1515 1518 1521 1523 1525 1527 1529 1530 1532 1534 1535 1536 1537 1537 1538 1538
1466 1465 1477 1455 1440 1441 1446 1447 1447 1450 1454 1458 1463 1469 1473 1476 1479 1481 1484 1487 1491 1493 1496 1499 1502 1505 1508 1511 1514 1516 1518 1521 1523 1524 1526 1528 1530 1531 1533 1534 1535 1536 1536 1537
1467 1469 1463 1450 1443 1443 1448 1452 1449 1451 1454 1458 1462 1467 1472 1476 1478 1481 1484 1487 1490 1492 1495 1498 1500 1503 1506 1509 1512 1514 1516 1518 1520 1522 1524 1526 1528 1529 1530 1532 1533 1534 1535 1535
1466 1471 1473 1455 1443 1443 1446 1456 1451 1453 1456 1459 1462 1468 1473 1476 1478 1481 1484 1486 1489 1491 1494 1496 1499 1501 1504 1507 1510 1512 1514 1516 1518 1520 1522 1523 1525 1527 1528 1530 1531 1533 1534 1534
1467 1468 1461 1449 1446 1446 1460 1462 1455 1456 1459 1462 1465 1470 1475 1476 1478 1481 1484 1487 1489 1491 1493 1495 1497 1500 1503 1505 1507 1510 1512 1514 1516 1517 1518 1520 1522 1524 1526 1528 1529 1531 1532 1533
1465 1468 1467 1451 1450 1454 1458 1457 1458 1460 1462 1465 1468 1471 1474 1477 1480 1482 1485 1487 1489 1490 1492 1494 1496 1498 1501 1502 1505 1508 1509 1511 1513 1515 1516 1518 1520 1522 1524 1526 1527 1529 1530 1531
1458 1461 1456 1455 1456 1457 1458 1460 1461 1463 1465 1467 1470 1473 1476 1478 1481 1483 1485 1487 1489 1490 1492 1494 1495 1497 1499 1501 1503 1505 1507 1509 1511 1513 1514 1516 1518 1520 1522 1524 1526 1527 1528 1529
1456 1457 1456 1458 1459 1460 1461 1462 1463 1465 1467 1469 1471 1473 1476 1479 1481 1483 1485 1486 1488 1490 1491 1493 1495 1496 1498 1499 1501 1503 1505 1507 1509 1511 1512 1514 1516 1518 1519 1521 1523 1524 1525 1526
1455 1456 1457 1459 1460 1461 1462 1463 1465 1466 1468 1470 1472 1474 1477 1479 1481 1482 1485 1486 1488 1489 1491 1492 1494 1495 1496 1498 1499 1501 1503 1505 1507 1509 1510 1512 1513 1515 1516 1517 1518 1521 1522 1523
1455 1456 1458 1461 1461 1463 1463 1464 1466 1467 1469 1470 1472 1474 1476 1478 1480 1482 1484 1485 1487 1489 1490 1491 1492 1494 1495 1496 1497 1499 1501 1503 1505 1507 1508 1509 1510 1512 1513 1515 1516 1517 1519 1520
1456 1457 1459 1460 1462 1462 1464 1465 1467 1468 1469 1470 1472 1474 1475 1477 1479 1481 1483 1484 1486 1487 1489 1490 1491 1492 1493 1494 1496 1498 1499 1501 1503 1504 1505 1507 1507 1509 1509 1511 1512 1513 1515 1516
1457 1458 1459 1460 1461 1462 1464 1465 1467 1468 1469 1470 1472 1474 1475 1476 1478 1480 1482 1483 1485 1486 1487 1488 1489 1490 1491 1492 1493 1495 1497 1499 1500 1501 1502 1503 1504 1506 1507 1507 1508 1509 1511 1512
1456 1457 1459 1460 1461 1462 1464 1465 1466 1467 1469 1470 1472 1473 1474 1475 1477 1479 1481 1482 1483 1484 1485 1486 1487 1488 1489 1490 1491 1494 1495 1496 1497 1498 1499 1500 1501 1503 1504 1504 1505 1506 1507 1508
1456 1457 1459 1460 1460 1462 1464 1465 1466 1467 1468 1470 1471 1472 1473 1474 1476 1477 1479 1480 1481 1481 1483 1484 1485 1486 1487 1488 1489 1491 1492 1493 1494 1495 1496 1497 1498 1499 1500 1501 1502 1502 1503 1504
1456 1458 1459 1460 1461 1462 1463 1464 1466 1467 1468 1469 1470 1472 1473 1473 1475 1476 1477 1478 1479 1479 1480 1481 1482 1483 1484 1485 1486 1488 1489 1489 1491 1492 1492 1493 1495 1496 1497 1498 1499 1499 1499 1499
1456 1458 1459 1460 1461 1462 1463 1465 1466 1467 1468 1469 1470 1471 1471 1472 1473 1474 1475 1476 1476 1477 1478 1479 1480 1481 1482 1483 1484 1485 1486 1486 1488 1489 1489 1490 1491 1493 1494 1495 1496 1496 1497 1496
1455 1457 1458 1460 1461 1462 1463 1465 1466 1467 1468 1468 1469 1470 1470 1471 1471 1472 1473 1474 1474 1475 1476 1477 1477 1478 1479 1480 1481 1482 1483 1484 1485 1486 1486 1487 1489 1490 1491 1492 1493 1493 1493 1493
1456 1457 1458 1459 1461 1462 1463 1465 1466 1467 1467 1468 1468 1469 1469 1470 1470 1471 1471 1471 1472 1473 1473 1474 1475 1476 1477 1478 1478 1479 1480 1481 1482 1483 1483 1484 1485 1486 1487 1489 1490 1490 1490 1490
1456 1456 1457 1459 1461 1462 1464 1465 1466 1466 1467 1467 1468 1468 1468 1469 1469 1470 1470 1470 1471 1471 1472 1472 1472 1473 1474 1475 1475 1476 1477 1478 1479 1479 1480 1481 1482 1483 1484 1485 1486 1486 1487 1487
1456 1457 1458 1460 1461 1462 1463 1464 1465 1466 1467 1467 1467 1467 1468 1468 1468 1469 1469 1469 1469 1469 1469 1470 1470 1471 1471 1472 1473 1474 1474 1475 1476 1476 1477 1478 1479 1479 1480 1481 1482 1483 1483 1483
1456 1457 1458 1459 1460 1461 1462 1463 1464 1465 1466 1466 1466 1466 1466 1466 1467 1467 1467 1467 1467 1467 1467 1467 1467 1468 1469 1470 1471 1471 1471 1472 1473 1474 1474 1475 1475 1476 1477 1478 1479 1479 1480 1480
1456 1457 1458 1459 1460 1461 1462 1462 1463 1464 1464 1464 1464 1464 1464 1465 1465 1465 1465 1465 1465 1465 1465 1465 1465 1466 1467 1467 1468 1469 1469 1469 1470 1471 1471 1472 1472 1473 1474 1475 1475 1476 1476 1476
1456 1457 1457 1458 1459 1460 1461 1462 1462 1462 1463 1462 1462 1462 1463 1462 1462 1463 1463 1463 1463 1463 1463 1463 1464 1464 1465 1465 1465 1466 1466 1467 1467 1468 1468 1469 1470 1471 1471 1472 1473 1473 1473 1474
1456 1456 1457 1457 1458 1459 1459 1460 1460 1460 1460 1460 1460 1460 1460 1460 1461 1461 1461 1461 1461 1461 1462 1462 1463 1463 1463 1464 1464 1464 1464 1464 1465 1466 1466 1466 1467 1467 1468 1469 1469 1470 1470 1471
1455 1455 1456 1456 1457 1457 1458 1458 1458 1459 1459 1459 1459 1459 1459 1459 1459 1459 1460 1459 1460 1460 1460 1461 1461 1461 1462 1462 1462 1462 1463 1462 1463 1464 1464 1464 1465 1465 1465 1466 1467 1467 1468 1468